Location: Newark
(48.5156°N, 1.8989°W)
Time: 16:11:57
(UTC+00:00)

Transit 4A - Pass Details

Date: 26 November 2019
Orbit: 870 x 975 km, 66.8° (Epoch: 09 December)

Event Time Altitude Azimuth Distance (km) Brightness Sun altitude
Exits shadow 04:41:21 51° 350° (N) 1,107 8.1 -27.5°
Maximum altitude 04:42:47 69° 52° (NE) 939 7.9 -27.3°
Drops below altitude 10° 04:48:34 10° 136° (SE) 2,514 10.7 -26.3°
Sets 04:51:03 0° 138° (SE) 3,446 11.5 -25.9°
